This is the latest recevied weather packets stored in our database for station/object DG8AAC-L2. If no packets are shown the sender has not sent any weather packets the latest 1 day(s).
| Time | Temp. | Humidity | Pressure | Rain* | Wind** | Luminosity | Snow |
|---|---|---|---|---|---|---|---|
| 1777746211 | 26.11° C | 27% | 1017 hPa | - | - | - | - |
| 1777744411 | 27.22° C | 25% | 1017 hPa | - | - | - | - |
| 1777742611 | 27.78° C | 24% | 1017.2 hPa | - | - | - | - |
| 1777740811 | 28.33° C | 24% | 1017.4 hPa | - | - | - | - |
| 1777739011 | 28.33° C | 22% | 1017.6 hPa | - | - | - | - |
| 1777737211 | 28.33° C | 21% | 1018 hPa | - | - | - | - |
| 1777735411 | 27.78° C | 20% | 1018.2 hPa | - | - | - | - |
| 1777733611 | 27.78° C | 19% | 1018.4 hPa | - | - | - | - |
| 1777731810 | 27.78° C | 20% | 1018.8 hPa | - | - | - | - |
| 1777730010 | 27.22° C | 20% | 1019.3 hPa | - | - | - | - |
| 1777728210 | 27.22° C | 20% | 1019.7 hPa | - | - | - | - |
| 1777726410 | 26.67° C | 20% | 1020 hPa | - | - | - | - |
| 1777724610 | 26.11° C | 19% | 1020.2 hPa | - | - | - | - |
| 1777722810 | 26.11° C | 22% | 1020.7 hPa | - | - | - | - |
| 1777721010 | 25.56° C | 23% | 1021.2 hPa | - | - | - | - |
| 1777719210 | 25° C | 24% | 1021.5 hPa | - | - | - | - |
| 1777717409 | 24.44° C | 24% | 1022 hPa | - | - | - | - |
| 1777715609 | 24.44° C | 26% | 1022.3 hPa | - | - | - | - |
| 1777713809 | 22.78° C | 29% | 1022.6 hPa | - | - | - | - |
| 1777712009 | 21.67° C | 29% | 1022.9 hPa | - | - | - | - |
| 1777710209 | 21.11° C | 30% | 1023 hPa | - | - | - | - |
| 1777708408 | 19.44° C | 31% | 1023.2 hPa | - | - | - | - |
| 1777706609 | 18.33° C | 32% | 1023.3 hPa | - | - | - | - |
* Rain since midnight (hover to see other rain measurements)
** Current wind speed in m/s (hover to see current wind gust speed)